Weather History for Panama City Tyndall AFB, FL

Change the Weather History Date:

Sunday, July 7, 2013

  Actual Average Record
Temperature  
Mean Temperature 80 °F -  
Max Temperature 86 °F 86 °F 95 °F (2000)
Min Temperature 73 °F 73 °F 69 °F (2014)
Cooling Degree Days 14    
Growing Degree Days 30 (Base 50)    
Moisture  
Dew Point 73 °F    
Average Humidity 84    
Maximum Humidity 94    
Minimum Humidity 70    
Precipitation  
Precipitation 0.38 in - - ()
Sea Level Pressure  
Sea Level Pressure 30.10 in    
Wind  
Wind Speed 4 mph (East)    
Max Wind Speed 13 mph    
Max Gust Speed 18 mph    
Visibility 9 miles    
Events Rain , Thunderstorm    
Averages and records for this station are not official NWS values.
T = Trace of Precipitation, MM = Missing Value Source: NWS Daily Summary

Daily Weather History Graph

Daily Weather History Graph

Search for Another Location

Airport:

Trip Planner

Search our weather history database for the weather conditions in past years. The results will help you decide how hot, cold, wet, or windy it might be!

Date:

Astronomy

Jul. 07, 2013 Rise Set
Actual Time 5:47 AM CDT 7:47 PM CDT
Civil Twilight 5:20 AM CDT 8:14 PM CDT
Nautical Twilight 4:47 AM CDT 8:47 PM CDT
Astronomical Twilight 4:11 AM CDT 9:22 PM CDT
Moon 5:18 AM CDT (7/7) 7:15 PM CDT (7/7)
Length of Visible Light 14h 54m
Length of Day
13h 59m
Waning Crescent, 0% of the Moon is Illuminated
Jul 7
Waning Crescent
Jul 8
New
Jul 15
First Quarter
Jul 22
Full
Jul 29
Last Quarter

Hourly Weather History & Observations

Time (CDT) Temp. Heat Index Dew Point Humidity Pressure Visibility Wind Dir Wind Speed Gust Speed Precip Events Conditions
12:03 AM 73.4 °F - 69.8 °F 88% 30.10 in 5.0 mi SE 2.3 mph - N/A   Clear
12:08 AM 73.4 °F - 69.8 °F 88% 30.10 in 4.0 mi ESE 2.3 mph - N/A   Clear
12:13 AM 73.4 °F - 69.8 °F 88% 30.09 in 6.0 mi East 2.3 mph - N/A   Clear
12:18 AM 73.4 °F - 69.8 °F 88% 30.09 in 10.0 mi East 2.3 mph - N/A   Clear
12:58 AM 73.6 °F - 70.9 °F 91% 30.10 in 10.0 mi East 3.5 mph - N/A   Clear
1:58 AM 73.8 °F - 71.8 °F 93% 30.09 in 10.0 mi East 4.6 mph - N/A   Clear
2:58 AM 73.6 °F - 71.2 °F 92% 30.07 in 10.0 mi East 2.3 mph - N/A   Clear
3:58 AM 73.6 °F - 71.2 °F 92% 30.07 in 10.0 mi East 3.5 mph - N/A   Clear
4:20 AM 73.4 °F - 71.6 °F 94% 30.06 in 10.0 mi East 2.3 mph - N/A   Partly Cloudy
4:58 AM 73.4 °F - 69.8 °F 88% 30.07 in 10.0 mi East 4.6 mph - N/A   Partly Cloudy
5:28 AM 73.4 °F - 71.6 °F 94% 30.07 in 10.0 mi East 4.6 mph - N/A   Mostly Cloudy
5:48 AM 73.4 °F - 69.8 °F 88% 30.07 in 10.0 mi East 5.8 mph - N/A   Scattered Clouds
5:58 AM 73.2 °F - 70.5 °F 91% 30.08 in 10.0 mi ENE 5.8 mph - N/A   Scattered Clouds
6:03 AM 73.4 °F - 69.8 °F 88% 30.07 in 10.0 mi East 5.8 mph - N/A   Mostly Cloudy
6:08 AM 73.4 °F - 69.8 °F 88% 30.07 in 10.0 mi East 4.6 mph - N/A   Scattered Clouds
6:58 AM 74.7 °F - 71.6 °F 90% 30.10 in 10.0 mi East 4.6 mph - N/A   Clear
7:58 AM 77.4 °F - 73.8 °F 89% 30.11 in 10.0 mi East 3.5 mph - N/A   Clear
8:58 AM 81.0 °F 87.1 °F 75.7 °F 84% 30.13 in 10.0 mi East 8.1 mph - N/A   Clear
9:58 AM 83.5 °F 91.6 °F 75.6 °F 77% 30.13 in 10.0 mi ESE 8.1 mph - N/A   Partly Cloudy
10:58 AM 84.2 °F 92.3 °F 75.0 °F 74% 30.13 in 10.0 mi SSE 6.9 mph - N/A   Scattered Clouds
11:03 AM 84.2 °F 92.3 °F 75.2 °F 74% 30.13 in 10.0 mi SE 8.1 mph - N/A   Mostly Cloudy
11:08 AM 84.2 °F 92.3 °F 75.2 °F 74% 30.13 in 10.0 mi SSE 4.6 mph - N/A   Mostly Cloudy
11:18 AM 84.2 °F 92.3 °F 75.2 °F 74% 30.13 in 10.0 mi South 5.8 mph - N/A   Mostly Cloudy
11:23 AM 84.2 °F 92.3 °F 75.2 °F 74% 30.12 in 10.0 mi SSE 3.5 mph - N/A   Scattered Clouds
11:58 AM 86.0 °F 96.4 °F 76.5 °F 73% 30.13 in 10.0 mi South 6.9 mph - N/A   Scattered Clouds
12:58 PM 84.9 °F 92.9 °F 74.7 °F 71% 30.12 in 10.0 mi South 10.4 mph - N/A Thunderstorm Mostly Cloudy
1:13 PM 86.0 °F 95.1 °F 75.2 °F 70% 30.12 in 10.0 mi East 6.9 mph - N/A   Mostly Cloudy
1:38 PM 82.4 °F 88.2 °F 73.4 °F 74% 30.11 in 10.0 mi East 4.6 mph - N/A   Mostly Cloudy
1:58 PM 84.6 °F 92.1 °F 74.3 °F 71% 30.11 in 10.0 mi East 3.5 mph - N/A   Scattered Clouds
2:33 PM 84.2 °F 90.9 °F 73.4 °F 70% 30.10 in 10.0 mi ESE 12.7 mph 18.4 mph N/A Thunderstorm Mostly Cloudy
2:48 PM 82.4 °F 88.2 °F 73.4 °F 74% 30.10 in 10.0 mi ESE 11.5 mph - N/A   Mostly Cloudy
2:58 PM 84.6 °F 92.1 °F 74.1 °F 71% 30.11 in 10.0 mi ESE 6.9 mph - N/A Thunderstorm Mostly Cloudy
3:43 PM 75.2 °F - 73.4 °F 94% 30.11 in 3.0 mi SE 5.8 mph - N/A Rain Heavy Rain
3:48 PM 75.2 °F - 71.6 °F 89% 30.10 in 3.0 mi ENE 4.6 mph - N/A Rain Rain
3:53 PM 75.2 °F - 71.6 °F 89% 30.10 in 6.0 mi NE 8.1 mph - N/A Rain Light Rain
3:58 PM 75.6 °F - 71.4 °F 87% 30.11 in 9.0 mi NE 3.5 mph - 0.38 in   Light Drizzle
4:03 PM 77.0 °F - 71.6 °F 83% 30.10 in 10.0 mi ENE 4.6 mph - N/A   Light Drizzle
4:58 PM 82.4 °F 87.9 °F 73.0 °F 73% 30.09 in 10.0 mi ESE 5.8 mph - 0.00 in   Light Drizzle
5:58 PM 82.6 °F 88.6 °F 73.6 °F 74% 30.10 in 10.0 mi East 6.9 mph - 0.00 in   Clear
6:58 PM 80.4 °F 85.5 °F 74.3 °F 82% 30.10 in 10.0 mi East 3.5 mph - N/A   Clear
7:58 PM 78.8 °F - 75.2 °F 89% 30.11 in 10.0 mi ENE 2.3 mph - N/A   Clear
8:58 PM 77.5 °F - 75.2 °F 92% 30.13 in 10.0 mi NNE 3.5 mph - N/A   Clear
9:58 PM 77.5 °F - 75.7 °F 94% 30.14 in 10.0 mi NE 3.5 mph - N/A   Clear
10:58 PM 77.0 °F - 74.8 °F 93% 30.14 in 10.0 mi East 2.3 mph - N/A   Clear
11:28 PM 77.0 °F - 75.2 °F 94% 30.13 in 10.0 mi East 2.3 mph - N/A   Mostly Cloudy
11:58 PM 77.0 °F - 74.5 °F 92% 30.15 in 10.0 mi Calm Calm - N/A   Scattered Clouds